Temperature
19 19 18 18 17 17 17 17 17 16 16 16 15 15 14 14 13 13 13 12 12 12 11 11 11 11 11 11 10 10 10 10 10 10 11 11 11 11 12 12 12 12 13
20 20 19 18 18 18 18 17 17 17 17 16 16 15 15 14 14 13 13 13 12 12 12 11 11 11 11 11 10 10 10 10 10 10 10 10 11 11 11 11 12 12 12
21 20 19 19 19 18 18 18 18 17 17 17 16 16 16 15 14 14 14 13 13 12 12 12 11 11 11 11 10 10 10 10 10 10 10 10 10 10 11 11 11 11 11
21 20 20 20 19 19 19 18 18 18 17 17 17 16 16 15 15 14 14 14 13 13 12 12 12 11 11 11 11 10 10 10 10 10 10 10 10 10 10 10 10 11 11
21 21 20 20 20 19 19 18 18 18 18 17 17 17 16 16 15 15 14 14 14 13 13 12 12 11 11 11 10 10 10 10 10 9 10 10 10 10 10 10 10 10 10
21 21 20 20 20 19 19 18 18 18 18 17 17 17 16 16 16 15 15 14 14 13 13 13 12 12 11 11 11 10 10 10 10 9 9 9 10 10 9 9 9 9 10
21 21 20 20 19 19 19 18 18 18 18 17 17 17 16 16 16 15 15 14 14 14 13 13 12 12 11 11 11 10 10 10 10 9 9 9 9 9 9 9 9 9 9
20 19 19 19 19 18 18 18 18 17 17 17 17 16 16 16 15 15 15 14 14 14 13 13 12 12 12 11 11 10 10 10 10 9 9 9 9 9 9 9 9 9 9
18 18 18 18 18 17 17 17 17 17 16 16 16 16 16 15 15 15 14 14 14 14 13 13 12 12 12 11 10 10 10 11 10 10 9 9 9 9 9 8 8 8 8
17 16 16 16 16 16 16 16 16 15 15 15 15 15 15 15 14 14 14 13 13 13 13 13 13 12 12 11 10 10 10 11 10 10 9 9 9 9 9 8 8 8 8
15 15 15 15 15 15 15 14 14 14 14 14 14 14 14 14 14 13 13 13 12 12 12 13 13 12 12 11 11 10 11 10 10 9 9 9 9 9 9 8 8 8 8
14 14 14 13 13 13 13 13 13 12 12 12 13 13 13 13 13 13 12 12 12 11 12 12 12 12 11 11 11 10 10 10 9 9 9 9 9 9 9 9 8 8 8
13 13 12 12 12 12 12 12 12 11 11 11 11 11 11 12 12 12 11 11 11 11 11 11 11 11 11 11 10 10 10 9 9 9 9 9 9 9 9 8 8 8 8
12 11 11 11 11 11 11 10 10 10 10 10 10 10 10 10 10 11 11 11 11 11 11 11 11 11 10 10 10 10 10 9 9 9 9 9 9 8 8 8 8 8 8
10 10 10 10 10 10 10 9 9 9 9 9 9 9 9 9 9 9 9 10 10 10 10 10 10 10 10 10 10 10 10 9 9 9 9 8 8 8 8 8 8 8 7
10 10 9 9 9 9 9 9 9 9 8 8 8 8 8 8 8 9 9 9 9 9 9 9 9 10 10 10 10 10 10 9 9 9 9 8 8 8 8 8 8 8 7
9 9 9 9 9 8 8 8 8 8 8 8 8 7 7 7 8 8 8 8 9 9 9 9 9 9 10 10 10 10 9 9 9 9 9 8 8 8 8 8 8 7 7
9 9 8 8 8 8 7 7 7 6 6 7 7 7 7 7 7 7 7 7 8 8 8 8 9 9 9 9 9 9 9 9 8 8 8 8 8 8 8 8 7 7 7
9 8 8 8 7 7 7 6 6 6 5 5 5 6 6 6 6 6 6 6 7 7 8 8 8 8 8 9 9 9 8 8 8 8 8 8 8 8 7 7 7 7 7
8 8 7 7 7 6 6 5 5 5 4 4 4 4 5 5 5 5 6 6 6 6 7 7 7 8 8 8 8 8 8 8 8 8 8 8 8 7 7 7 7 7 7
8 7 7 6 6 5 5 5 4 4 3 3 3 4 4 4 4 4 4 5 5 6 6 6 7 7 7 7 7 7 7 7 7 7 7 7 7 7 7 7 7 7 7
7 6 6 5 4 4 4 3 3 3 3 3 3 3 3 3 4 4 4 4 5 5 5 6 6 6 7 7 7 7 7 7 7 7 7 7 7 7 7 7 7 7 7
6 5 4 4 3 3 2 2 2 2 2 2 2 2 2 2 3 3 3 4 4 4 5 5 5 6 6 6 6 6 6 7 7 7 6 7 7 7 7 7 7 7 7
4 3 3 2 2 1 1 1 1 1 1 1 1 1 1 2 2 2 3 3 3 4 4 5 5 5 6 6 6 6 6 6 6 6 6 6 6 6 6 7 7 7 7
3 2 1 1 0 0 0 0 0 0 0 0 1 1 1 1 2 2 2 3 3 3 4 4 4 5 5 5 5 5 6 6 6 6 6 6 6 6 6 6 7 7 7
1 1 0 -0 -0 -0 -1 -1 -0 -0 -0 0 0 1 1 1 1 1 2 2 3 3 3 4 4 4 5 5 5 5 5 6 6 6 6 6 6 6 6 6 6 6 6
Wind_Speed
11 11 10 10 9 8 8 9 8 7 7 7 7 7 7 7 6 6 7 6 6 6 5 6 7 5 4 4 4 4 5 5 6 5 3 3 4 6 7 8 8 8 9
12 11 11 10 9 10 10 9 8 8 8 8 7 7 8 8 7 7 8 7 8 8 7 7 8 6 6 5 5 6 6 6 6 7 4 4 5 5 5 6 7 7 7
11 11 11 10 11 12 11 10 9 9 9 8 8 9 9 8 8 8 9 8 9 9 8 8 8 7 8 6 7 7 6 6 6 6 6 4 4 4 4 4 5 5 7
11 12 12 13 13 12 11 10 10 10 10 10 10 10 10 9 9 9 9 9 9 9 9 9 9 9 10 9 8 8 7 7 6 6 7 6 5 4 4 4 5 3 4
10 12 13 12 10 10 10 10 10 10 11 10 10 10 10 9 9 10 10 10 10 10 10 10 10 12 13 11 8 8 8 7 6 7 7 5 5 5 5 4 5 5 5
10 11 10 8 9 10 10 10 10 10 10 9 10 11 11 10 13 15 12 10 10 11 11 10 10 12 13 14 15 14 12 10 10 8 8 9 9 7 6 5 4 4 4
8 7 6 7 8 9 8 8 10 10 10 11 11 11 12 13 16 16 16 12 11 11 12 11 10 10 12 11 12 13 14 15 15 12 12 12 10 8 6 6 6 7 7
3 3 3 4 6 5 6 9 9 8 8 10 11 11 11 13 16 17 17 13 12 13 13 13 12 12 11 11 11 11 12 12 13 13 13 13 13 11 9 8 7 6 6
0 2 3 4 5 5 7 8 7 6 8 8 7 10 11 13 16 17 15 10 11 14 14 13 14 14 15 15 12 13 13 12 13 16 17 16 16 15 10 6 6 6 7
3 2 2 1 3 5 6 6 5 6 8 7 8 9 10 12 13 16 15 10 12 13 12 12 16 17 17 16 14 13 14 14 11 9 10 12 13 13 14 12 10 9 7
4 4 4 3 2 3 3 3 3 4 5 6 8 8 9 11 13 15 15 11 12 13 12 12 12 17 20 19 17 14 16 13 10 9 9 8 8 8 9 10 11 10 10
6 6 6 5 4 4 3 3 3 3 5 6 7 8 7 8 11 13 16 17 16 14 13 12 12 17 19 19 16 16 18 13 9 8 8 9 9 9 9 10 11 13 13
7 7 6 6 5 5 4 4 4 4 4 6 6 8 8 7 8 14 16 17 18 15 14 16 16 17 16 14 17 18 14 11 10 10 11 12 11 10 9 7 8 10 12
7 6 6 6 6 6 4 4 4 5 6 6 7 8 9 8 8 8 9 10 13 14 14 15 17 16 14 13 11 11 12 11 12 12 12 11 10 8 9 8 8 7 8
6 5 5 5 5 5 5 4 5 5 6 8 8 9 10 12 12 14 12 11 10 11 9 9 9 8 10 11 10 10 10 10 11 12 11 11 10 10 10 8 8 8 8
4 5 4 5 5 5 6 7 8 9 12 13 13 13 12 15 19 20 20 19 19 15 9 10 12 12 12 12 12 11 11 11 12 11 11 11 11 10 10 9 8 9 10
3 4 4 5 5 6 6 7 10 11 11 13 15 16 16 18 19 20 20 19 17 12 10 11 12 12 12 12 11 11 11 11 11 11 11 11 11 10 10 9 9 9 10
4 6 6 5 6 6 7 8 8 10 12 11 12 15 17 18 18 19 18 13 9 8 10 12 12 11 11 11 11 11 10 9 9 10 10 11 11 10 10 10 10 11 11
5 5 6 6 6 7 7 8 8 10 11 12 12 13 16 17 16 16 12 8 10 10 10 11 11 11 10 10 10 10 10 9 10 10 10 11 10 10 11 11 11 12 12
5 9 9 7 7 7 8 8 9 10 11 11 12 13 13 14 13 13 10 9 9 10 10 10 10 10 9 10 9 9 9 10 10 10 10 10 10 10 11 12 11 11 11
5 8 11 8 7 8 8 9 10 10 11 12 12 13 15 13 13 13 11 10 9 9 9 9 8 8 9 9 8 9 11 9 9 9 9 9 9 10 10 10 11 11 10
5 6 7 7 8 8 9 9 10 11 12 13 12 13 15 12 11 11 10 10 8 7 7 7 7 6 6 7 7 8 8 9 9 9 9 9 9 9 9 9 10 10 10
5 7 7 8 8 10 10 9 10 11 12 12 12 12 12 11 11 11 10 9 8 7 6 5 6 5 5 5 6 6 7 8 7 7 8 8 8 8 9 10 11 11 11
6 7 8 8 9 9 10 11 11 12 12 12 12 11 11 11 11 12 11 10 9 8 7 6 6 7 8 6 5 5 5 5 5 6 9 8 8 8 8 9 10 11 11
6 7 8 8 9 10 10 11 12 12 12 12 12 11 11 11 11 11 10 10 10 9 9 8 6 7 8 8 6 5 4 5 5 5 6 7 9 9 10 10 10 10 11
7 8 8 8 9 10 10 11 12 12 12 12 12 11 11 11 11 11 10 10 10 9 9 8 9 9 9 7 7 7 6 5 5 6 6 6 8 8 9 9 11 11 11
Wind_Direction
205 204 201 201 199 196 202 209 207 206 205 208 211 212 217 222 219 216 228 228 230 239 234 228 236 229 225 221 214 213 214 210 241 264 256 271 280 288 305 311 310 306 304
205 200 203 200 194 200 210 213 207 208 210 212 211 213 220 224 221 220 232 233 231 239 240 234 242 235 230 226 218 220 223 217 229 260 266 265 262 274 283 293 300 303 299
196 197 201 201 201 208 213 211 207 210 213 214 212 218 224 226 226 226 230 235 235 239 240 238 242 233 237 232 225 229 232 231 224 242 263 259 265 271 281 284 288 293 301
194 198 205 209 210 213 212 210 210 210 214 216 217 221 225 227 230 232 233 237 241 243 241 238 240 234 237 236 232 232 232 236 234 242 259 262 262 263 259 269 283 282 296
192 203 213 213 210 210 211 214 214 214 220 219 220 225 226 227 232 230 232 237 240 245 245 242 241 240 238 233 231 230 226 233 239 245 255 258 259 254 252 249 266 282 283
195 211 215 206 207 214 217 216 216 220 221 218 223 226 229 232 230 225 224 233 235 240 245 246 245 248 248 242 238 232 222 229 238 242 252 254 258 254 250 245 251 263 277
201 214 210 206 212 219 218 217 222 224 222 224 228 227 232 235 232 232 228 228 233 237 239 243 247 244 236 242 246 247 242 235 230 236 248 251 255 248 239 244 236 238 248
211 238 240 230 237 235 225 230 232 229 228 232 234 233 237 243 235 234 233 232 236 239 238 236 239 244 238 233 241 247 248 246 240 239 242 248 248 247 235 241 248 249 255
330 262 243 221 229 232 237 243 238 232 237 239 240 234 237 247 239 234 231 235 239 243 241 237 235 241 238 226 233 245 252 255 248 241 240 243 244 240 227 226 228 234 257
1 336 317 258 237 238 242 245 241 236 245 250 252 247 245 252 249 239 229 234 241 247 246 241 233 234 235 222 226 233 245 251 249 250 244 246 247 246 227 222 227 235 249
19 26 21 3 306 277 270 263 261 254 258 259 261 261 255 255 258 249 236 232 240 245 247 245 240 229 229 226 220 228 236 239 241 243 248 251 249 244 237 226 223 226 237
28 32 23 12 5 360 351 330 305 282 276 275 274 277 269 262 258 257 246 235 236 243 246 246 242 230 226 226 224 228 231 231 239 240 244 248 248 246 241 234 228 229 235
29 22 11 7 4 3 357 337 324 307 294 291 288 288 288 279 267 258 257 250 239 241 249 245 241 235 228 230 229 225 223 225 225 232 241 246 246 247 246 242 238 236 241
29 13 4 2 356 353 347 334 323 314 307 302 299 295 293 289 284 279 275 271 257 248 251 249 243 240 233 233 233 229 223 220 220 231 240 246 248 244 242 239 243 239 246
19 6 358 354 346 340 335 322 314 299 294 298 298 295 297 295 288 282 281 281 273 262 255 250 241 235 233 231 231 230 223 219 223 231 236 242 244 243 244 236 235 233 237
359 347 339 335 331 330 326 322 303 291 294 291 281 281 286 278 282 285 283 277 270 262 247 247 242 235 232 230 228 228 224 222 223 225 229 234 238 240 241 234 227 229 237
324 316 315 319 320 320 320 319 319 316 305 298 295 295 290 289 288 287 285 282 273 252 239 242 241 236 233 230 228 226 227 226 222 221 225 229 232 235 236 236 231 230 236
312 310 311 304 306 308 309 308 308 311 315 315 310 303 301 298 296 294 290 290 277 246 241 244 243 240 236 233 231 229 230 229 223 222 224 227 228 230 233 236 234 233 235
309 307 306 304 306 306 307 307 306 306 306 308 311 310 307 306 300 295 291 279 274 267 255 250 248 244 240 236 233 231 229 229 227 221 223 226 227 228 232 235 236 233 233
310 315 319 312 312 314 313 312 310 309 309 309 309 311 315 315 312 308 299 283 275 271 263 256 252 247 242 238 233 228 228 228 228 226 226 227 228 228 233 236 236 235 232
318 320 324 321 315 314 313 311 310 310 310 309 307 306 307 310 307 305 301 293 285 279 273 264 258 251 244 239 234 230 229 230 228 226 228 229 229 230 231 235 237 236 235
325 321 322 320 319 317 315 312 311 310 310 309 310 312 310 311 312 309 306 301 295 291 285 272 263 257 253 248 241 236 233 232 230 229 230 231 230 231 233 234 234 233 233
332 329 327 325 323 319 318 318 316 314 312 311 311 314 318 319 319 317 316 316 313 309 306 296 284 277 272 266 255 244 240 239 235 231 230 233 234 234 234 234 236 236 233
341 336 332 330 329 326 323 320 318 316 314 313 312 314 317 318 318 319 320 321 321 322 322 315 306 302 298 289 275 259 250 249 247 242 238 238 239 241 240 240 240 239 239
346 341 338 334 330 326 323 321 319 318 317 315 315 315 315 315 316 318 318 320 322 324 327 326 319 317 317 313 305 294 280 262 254 254 248 242 243 243 244 243 242 243 240
348 343 338 333 328 325 322 320 319 319 319 318 316 315 317 317 317 317 318 320 324 325 325 323 321 320 317 312 312 315 304 283 264 254 249 245 244 243 243 244 246 244 246
Height
1532 1534 1536 1537 1539 1540 1540 1540 1541 1541 1541 1541 1541 1541 1541 1541 1541 1541 1541 1541 1541 1541 1540 1540 1539 1539 1538 1538 1537 1537 1537 1536 1534 1534 1534 1534 1533 1533 1533 1533 1533 1533 1534
1527 1530 1531 1533 1535 1535 1536 1537 1538 1538 1538 1538 1538 1538 1538 1538 1538 1538 1538 1537 1537 1537 1536 1536 1535 1535 1534 1534 1533 1533 1532 1532 1531 1529 1529 1529 1529 1528 1528 1528 1528 1528 1528
1523 1525 1527 1528 1530 1531 1532 1533 1534 1534 1535 1535 1535 1535 1535 1535 1535 1534 1534 1533 1533 1532 1532 1531 1531 1530 1530 1529 1529 1528 1528 1527 1526 1524 1523 1523 1523 1523 1523 1522 1522 1522 1522
1518 1520 1522 1523 1525 1527 1528 1529 1530 1530 1531 1531 1531 1531 1531 1531 1530 1530 1529 1529 1528 1527 1527 1526 1526 1525 1524 1524 1524 1523 1523 1522 1521 1519 1518 1518 1518 1518 1517 1517 1516 1516 1516
1513 1515 1516 1518 1520 1522 1523 1524 1525 1526 1526 1527 1527 1527 1527 1526 1526 1525 1525 1524 1523 1522 1521 1521 1520 1519 1519 1518 1518 1517 1517 1516 1515 1514 1513 1512 1512 1512 1512 1512 1511 1510 1510
1508 1509 1511 1513 1515 1516 1517 1519 1519 1520 1521 1521 1521 1521 1521 1521 1521 1520 1519 1518 1517 1516 1515 1515 1514 1513 1512 1512 1511 1511 1510 1509 1508 1508 1507 1506 1506 1507 1507 1506 1506 1505 1504
1502 1504 1506 1508 1509 1511 1512 1513 1513 1514 1515 1515 1515 1515 1515 1515 1515 1514 1513 1512 1511 1510 1509 1508 1507 1506 1506 1505 1504 1504 1503 1502 1502 1502 1500 1500 1500 1501 1501 1500 1500 1499 1498
1498 1500 1501 1503 1504 1506 1507 1507 1507 1508 1508 1508 1508 1508 1508 1508 1508 1507 1507 1505 1504 1502 1502 1501 1500 1499 1499 1498 1497 1496 1496 1495 1495 1494 1494 1493 1494 1495 1495 1495 1494 1493 1492
1495 1496 1496 1497 1498 1499 1500 1500 1501 1501 1501 1501 1501 1500 1499 1499 1500 1499 1499 1497 1496 1495 1494 1493 1492 1491 1491 1491 1490 1489 1488 1488 1489 1488 1487 1487 1488 1488 1488 1488 1487 1487 1485
1492 1492 1492 1493 1493 1492 1493 1493 1493 1493 1493 1493 1492 1492 1491 1491 1491 1491 1491 1488 1486 1486 1485 1484 1484 1483 1483 1483 1482 1481 1480 1480 1482 1481 1481 1481 1481 1481 1481 1481 1481 1480 1479
1489 1489 1489 1488 1488 1487 1487 1486 1486 1485 1485 1484 1484 1483 1483 1482 1482 1481 1481 1479 1477 1476 1475 1475 1475 1475 1475 1474 1474 1473 1472 1474 1474 1473 1473 1473 1473 1473 1474 1474 1474 1473 1473
1488 1487 1486 1485 1484 1483 1481 1481 1480 1479 1477 1477 1475 1474 1473 1473 1472 1471 1471 1469 1468 1466 1464 1464 1465 1466 1465 1465 1464 1464 1465 1466 1465 1465 1465 1465 1465 1466 1466 1466 1466 1465 1465
1487 1485 1484 1483 1481 1479 1478 1477 1475 1474 1472 1470 1468 1466 1464 1463 1463 1462 1461 1459 1457 1455 1454 1454 1455 1456 1455 1455 1455 1456 1456 1456 1456 1456 1455 1456 1457 1457 1458 1457 1457 1457 1456
1487 1485 1483 1481 1479 1477 1475 1474 1472 1469 1466 1464 1461 1459 1456 1454 1453 1451 1450 1448 1446 1445 1444 1443 1444 1444 1444 1444 1445 1446 1446 1446 1446 1446 1446 1447 1448 1448 1448 1448 1448 1448 1447
1486 1484 1482 1479 1477 1474 1472 1470 1468 1465 1463 1459 1456 1453 1449 1445 1444 1442 1440 1437 1436 1434 1433 1432 1431 1432 1432 1433 1434 1435 1435 1436 1436 1437 1437 1437 1438 1438 1438 1439 1439 1439 1438
1485 1483 1480 1477 1474 1471 1468 1466 1463 1461 1457 1454 1450 1446 1441 1438 1435 1432 1429 1427 1425 1424 1422 1419 1419 1420 1420 1421 1422 1423 1424 1425 1426 1427 1427 1427 1428 1428 1429 1430 1430 1430 1429
1483 1481 1478 1475 1471 1468 1464 1459 1455 1452 1449 1446 1442 1438 1434 1429 1425 1422 1419 1416 1414 1413 1410 1408 1408 1409 1409 1410 1411 1412 1413 1415 1416 1417 1417 1418 1418 1419 1420 1421 1421 1421 1421
1481 1478 1474 1471 1467 1463 1459 1455 1450 1445 1440 1435 1433 1430 1425 1420 1416 1412 1409 1405 1402 1401 1399 1398 1398 1398 1399 1400 1401 1402 1403 1405 1406 1406 1407 1408 1409 1410 1410 1411 1412 1412 1412
1477 1474 1470 1466 1462 1458 1454 1449 1445 1440 1435 1429 1424 1421 1417 1412 1408 1404 1400 1396 1393 1391 1390 1389 1388 1388 1389 1390 1391 1392 1393 1394 1396 1397 1398 1399 1400 1401 1401 1402 1403 1403 1404
1473 1469 1465 1461 1457 1452 1448 1443 1439 1434 1429 1424 1419 1414 1409 1404 1399 1395 1391 1388 1385 1383 1381 1380 1379 1379 1380 1381 1382 1383 1384 1385 1386 1388 1389 1391 1392 1392 1393 1394 1394 1395 1395
1467 1464 1460 1455 1451 1446 1442 1437 1433 1428 1423 1418 1413 1409 1404 1399 1393 1388 1384 1381 1378 1375 1373 1372 1372 1372 1372 1373 1373 1374 1375 1377 1378 1379 1381 1382 1383 1384 1385 1385 1386 1387 1387
1462 1458 1454 1449 1445 1441 1436 1432 1427 1422 1417 1412 1407 1402 1398 1393 1387 1382 1378 1374 1372 1369 1367 1366 1365 1365 1365 1366 1366 1367 1368 1369 1370 1372 1373 1374 1375 1376 1377 1378 1378 1379 1379
1457 1452 1448 1444 1439 1435 1430 1426 1422 1417 1412 1407 1402 1397 1392 1387 1382 1377 1373 1370 1367 1365 1363 1361 1360 1360 1360 1360 1360 1360 1361 1362 1363 1365 1366 1367 1368 1369 1370 1370 1370 1371 1372
1452 1447 1443 1438 1434 1430 1425 1421 1416 1412 1407 1402 1397 1393 1388 1383 1378 1374 1370 1366 1363 1361 1359 1357 1356 1356 1355 1355 1354 1355 1355 1356 1357 1358 1359 1360 1361 1361 1362 1362 1363 1363 1364
1447 1443 1439 1434 1430 1426 1421 1417 1412 1407 1403 1398 1393 1388 1384 1379 1375 1371 1367 1363 1360 1358 1355 1354 1353 1352 1351 1350 1350 1350 1350 1350 1351 1351 1352 1352 1353 1354 1354 1354 1355 1355 1356
1444 1440 1436 1431 1427 1422 1418 1413 1408 1404 1399 1394 1389 1385 1380 1376 1371 1367 1363 1360 1357 1355 1353 1351 1350 1349 1347 1346 1346 1345 1344 1344 1344 1345 1345 1345 1346 1346 1347 1347 1347 1348 1348